FENGYUN 1C DEB, 30023

Orbit data source: Space-Track

FENGYUN 1C DEB, 30023 is space debris in SSO originally from a launch on Mon, 10 May 1999 UTC launched from the Taiyaun Space Center, China (TSC). Fengyun 1C debris stems from the Chinese weather satellite Fengyun-1C, which was intentionally destroyed by a Chinese anti-satellite missile in 2007. This event dramatically increased the amount of space debris, with thousands of trackable fragments posing hazards to satellites and human spaceflight. The Fengyun 1C debris cloud has become a focal point in discussions about space sustainability and the need for international regulations to prevent the creation of new debris.

Loading next visibility...
Identifier
30023, 1999-025MY
Orbit
SSO
Country
Flag of CNCN / PRC
Related business
Manufacturer
Unknown
Mission
Spacecraft
Bus & Motor
Unknown
Mass
Unknown
Launch date (UTC)
1999-05-10 (26 years ago)
Launch vehicle
Unknown
Launch site
Taiyaun Space Center, China (TSC)
Object type
Payload
Rocket body
Debris
Shape & HBR
Unknown shape, 0.1 m
Radar Cross Section
Small (<0.1 m²)

Expand to show TLE details & history
Last TLE update: 14 hours ago

TLE from 14 hours ago
0 FENGYUN 1C DEB
1 30023U 99025MY  25287.92242360  .00001019  00000-0  58019-3 0  9992
2 30023  99.2992 119.3582 0046016 227.2282 240.9592 14.11725744963668
Epoch: 2025-10-14T22:08Z
TLE epoch observation values (Epoch: 2025-10-14T22:08:17.399Z)
Latitude
70.12829°
Longitude
-29.63279°
Altitude
881.81 km
Speed
7.409 km/s
True Right ascension
21h 44m 34s
True Declination
70° 01' 12"
Sunlit
Object was in daylight at epoch
Visualization orbit readout
Latitude
Unknown
Longitude
Unknown
Altitude
Unknown
Speed
Unknown
Apparent Right ascension
Unknown
Apparent Declination
Unknown
Sunlit
N/A
Visualization observer readout
Local Sidereal Time
06:16:30
Azimuth
Unknown
Elevation
Unknown
Doppler factor
Unknown
Orbital elements
Apogee altitude
883.935 km
Perigee altitude
817.407 km
Semi-major axis
7,228.808 km
Eccentricity
0.0046
Inclination
99.2992°
RAAN
119.3582°
Arg. of periapsis
227.2282°
True anomaly
240.49948°
Mean anomaly
240.9592°
Eccentric anomaly
240.72921°
Mean motion
3.53137 °/min
Orbital period
101.94 mins
BSTAR
0.00058019
Loading maneuver chart data...
Computing Atmospheric mass density...

Documentation

Showing up to 5 results
|